Location: Elbart
(49.6135°N, 11.9134°E)
Time: 12:34:23
(UTC+00:00)

Cosmos 2366 rocket - Pass Details

Date: 09 April 2020
Orbit: 956 x 997 km, 82.9° (Epoch: 28 May)

Event Time Altitude Azimuth Distance (km) Brightness Sun altitude
Rises 19:35:17 0° 351° (N) 3,648 7.6 -15.4°
Reaches altitude 10° 19:37:49 10° 355° (N) 2,698 6.9 -15.8°
Maximum altitude 19:43:58 68° 78° (ENE) 1,031 3.9 -16.6°
Enters shadow 19:48:11 21° 157° (SSE) 2,001 5.2 -17.1°
